Weather History for Wooster, OH

Change the Weather History Date:

Tuesday, May 28, 2013

  Actual Average Record
Temperature  
Mean Temperature 68 °F -  
Max Temperature 84 °F 68 °F 91 °F (2012)
Min Temperature 53 °F 48 °F 39 °F (2008)
Cooling Degree Days 2    
Growing Degree Days 18 (Base 50)    
Moisture  
Dew Point 58 °F    
Average Humidity 74    
Maximum Humidity 96    
Minimum Humidity 46    
Precipitation  
Precipitation 0.08 in - - ()
Sea Level Pressure  
Sea Level Pressure 30.00 in    
Wind  
Wind Speed 9 mph (SSW)    
Max Wind Speed 21 mph    
Max Gust Speed 31 mph    
Visibility 9 miles    
Events Rain , Thunderstorm    
Averages and records for this station are not official NWS values.
T = Trace of Precipitation, MM = Missing Value Source: NWS Daily Summary

Daily Weather History Graph

Daily Weather History Graph

Search for Another Location

Airport:

Trip Planner

Search our weather history database for the weather conditions in past years. The results will help you decide how hot, cold, wet, or windy it might be!

Date:

Astronomy

May. 28, 2013 Rise Set
Actual Time 5:59 AM EDT 8:50 PM EDT
Civil Twilight 5:27 AM EDT 9:22 PM EDT
Nautical Twilight 4:46 AM EDT 10:03 PM EDT
Astronomical Twilight 3:59 AM EDT 10:50 PM EDT
Moon No Moon Rise 9:47 AM EDT (5/28)
Length of Visible Light 15h 55m
Length of Day
14h 50m
Waning Gibbous, 83% of the Moon is Illuminated
May 28
Waning Gibbous
May 31
Last Quarter
Jun 8
New
Jun 16
First Quarter
Jun 23
Full

Hourly Weather History & Observations

Time (EDT) Temp. Heat Index Dew Point Humidity Pressure Visibility Wind Dir Wind Speed Gust Speed Precip Events Conditions
12:56 AM 54.0 °F - 50.0 °F 86% 30.07 in 10.0 mi SSE 6.9 mph - 0.00 in   Overcast
1:56 AM 53.1 °F - 51.1 °F 93% 30.03 in 9.0 mi SE 9.2 mph - 0.02 in Rain Light Rain
2:56 AM 54.0 °F - 51.1 °F 90% 30.00 in 7.0 mi SE 10.4 mph - 0.04 in Rain Light Rain
3:56 AM 54.0 °F - 51.1 °F 90% 29.99 in 7.0 mi East 5.8 mph - 0.02 in Rain Light Rain
4:56 AM 54.0 °F - 52.0 °F 93% 29.99 in 6.0 mi SE 5.8 mph - 0.00 in   Overcast
5:56 AM 53.1 °F - 52.0 °F 96% 30.01 in 5.0 mi ESE 3.5 mph - N/A   Mostly Cloudy
6:56 AM 57.0 °F - 54.0 °F 89% 30.02 in 9.0 mi SW 4.6 mph - N/A   Mostly Cloudy
7:56 AM 60.1 °F - 55.9 °F 86% 30.03 in 10.0 mi SW 5.8 mph - N/A   Mostly Cloudy
8:56 AM 62.1 °F - 57.0 °F 84% 30.04 in 10.0 mi SW 8.1 mph - N/A   Overcast
9:56 AM 64.0 °F - 59.0 °F 84% 30.05 in 9.0 mi SSW 9.2 mph - N/A   Mostly Cloudy
10:07 AM 64.4 °F - 60.8 °F 88% 30.05 in 8.0 mi SSW 6.9 mph - N/A Thunderstorm Thunderstorm
10:22 AM 64.4 °F - 60.8 °F 88% 30.05 in 8.0 mi SW 4.6 mph - 0.00 in Rain Light Rain
10:41 AM 64.4 °F - 60.8 °F 88% 30.04 in 8.0 mi SSW 5.8 mph - 0.00 in Thunderstorm Overcast
10:56 AM 66.9 °F - 63.0 °F 87% 30.03 in 8.0 mi SSW 9.2 mph - 0.00 in Thunderstorm Scattered Clouds
11:08 AM 66.2 °F - 62.6 °F 88% 30.03 in 8.0 mi SSW 9.2 mph - N/A   Mostly Cloudy
11:56 AM 71.1 °F - 64.0 °F 78% 30.02 in 9.0 mi SW 12.7 mph 20.7 mph N/A   Scattered Clouds
12:56 PM 77.0 °F - 64.9 °F 66% 30.00 in 10.0 mi SW 20.7 mph 25.3 mph N/A   Clear
1:56 PM 81.0 °F 82.5 °F 64.0 °F 56% 29.98 in 10.0 mi WSW 16.1 mph 23.0 mph N/A   Scattered Clouds
2:56 PM 81.0 °F 82.5 °F 64.0 °F 56% 29.97 in 10.0 mi SW 19.6 mph 25.3 mph N/A   Mostly Cloudy
3:56 PM 82.0 °F 82.7 °F 61.0 °F 49% 29.95 in 10.0 mi SW 17.3 mph 31.1 mph N/A   Partly Cloudy
4:56 PM 82.9 °F 83.3 °F 61.0 °F 47% 29.93 in 10.0 mi SW 17.3 mph 24.2 mph N/A   Partly Cloudy
5:56 PM 82.9 °F 83.2 °F 60.1 °F 46% 29.93 in 10.0 mi SW 17.3 mph 27.6 mph N/A   Partly Cloudy
6:56 PM 80.1 °F 80.9 °F 60.1 °F 50% 29.94 in 10.0 mi SW 15.0 mph - N/A   Overcast
7:56 PM 78.1 °F - 57.9 °F 50% 29.94 in 10.0 mi SW 11.5 mph - N/A   Partly Cloudy
8:56 PM 75.9 °F - 57.9 °F 54% 29.95 in 10.0 mi SW 10.4 mph - N/A   Mostly Cloudy
9:56 PM 75.0 °F - 57.9 °F 55% 29.95 in 10.0 mi SW 11.5 mph - N/A   Mostly Cloudy
10:56 PM 72.0 °F - 57.9 °F 61% 29.97 in 10.0 mi SSW 6.9 mph - N/A   Partly Cloudy
11:56 PM 71.1 °F - 57.9 °F 63% 29.97 in 10.0 mi SSW 6.9 mph - N/A   Scattered Clouds